Flag for Germany Past Weather in Schloss Holte-Stukenbrock, North Rhine-Westphalia, Germany — Yesterday and Last 2 Weeks

Now
46 °F

Clear.


Feels Like: 40 °F
Forecast: 41 / 46 °F
Wind: 15 mph from Southwest

Location: Paderborn / Lippstadt

Current Time: Dec 8, 2016 at 1:13:53 am

Latest Report: Dec 8, 2016 at 12:50 am


Visibility: 10 mi

Pressure: 30.42 "Hg

Humidity: 62%

Dew Point: 34 °F

Location of Schloss Holte-StukenbrockLocation

Past Weather in Schloss Holte-Stukenbrock — Graph

°F

Schloss Holte-Stukenbrock Temperature Yesterday

Maximum temperature yesterday: 50 °F (at 8:20 pm)
Minimum temperature yesterday: 28 °F (at 12:20 am)
Average temperature yesterday: 42 °F

High & Low Weather Summary for the Past Weeks

 TemperatureHumidityPressure
High57 °F (Nov 23, 12:50 pm)100% (Nov 27, 9:50 am)30.57 "Hg (Nov 27, 9:50 am)
Low18 °F (Nov 29, 6:50 am)28% (Nov 30, 11:50 am)29.98 "Hg (Nov 22, 11:20 pm)
Average35 °F79%30.27 "Hg
* Reported Nov 22 11:20 pm — Dec 7 11:50 pm, Schloss Holte-Stukenbrock, Weather by CustomWeather, © 2016

Note: Actual official high and low records may vary slightly from our data, if they occured in-between our weather recording intervals... More about our weather records

Advertising

Schloss Holte-Stukenbrock Weather History for the Previous 24 Hours

Scroll right to see more
 ConditionsComfort  
Time TempWeatherWind HumidityBarometerVisibility
11:50 pm
Wed, Dec 7
48 °FClear.14 mph58%30.42 "Hg10 mi
11:20 pm48 °FClear.13 mph58%30.42 "Hg10 mi
10:50 pm48 °FClear.14 mph58%30.42 "Hg10 mi
10:20 pm48 °FClear.12 mph58%30.42 "Hg10 mi
9:50 pm50 °FClear.14 mph58%30.42 "Hg10 mi
9:20 pm50 °FClear.15 mph58%30.42 "Hg10 mi
8:50 pm50 °FClear.14 mph58%30.42 "Hg10 mi
8:20 pm50 °FClear.13 mph58%30.42 "Hg10 mi
7:50 pm48 °FClear.13 mph62%30.42 "Hg10 mi
7:20 pm48 °FClear.13 mph62%30.42 "Hg10 mi
6:50 pm48 °FClear.10 mph62%30.42 "Hg10 mi
6:20 pm48 °FClear.10 mph62%30.42 "Hg10 mi
5:50 pm48 °FClear.12 mph62%30.42 "Hg10 mi
5:20 pm48 °FClear.10 mph62%30.42 "Hg10 mi
4:50 pm48 °FClear.9 mph62%30.42 "Hg10 mi
4:20 pm48 °FClear.8 mph62%30.42 "Hg10 mi
3:50 pm48 °FSunny.8 mph62%30.42 "Hg10 mi
3:20 pm48 °FSunny.9 mph62%30.42 "Hg10 mi
2:50 pm48 °FSunny.8 mph62%30.39 "Hg10 mi
2:20 pm48 °FSunny.9 mph62%30.39 "Hg10 mi
1:50 pm48 °FSunny.9 mph62%30.42 "Hg10 mi
1:20 pm48 °FSunny.8 mph58%30.42 "Hg10 mi
12:50 pm48 °FSunny.7 mph58%30.42 "Hg10 mi
12:20 pm48 °FSunny.8 mph58%30.42 "Hg10 mi
11:50 am48 °FSunny.7 mph58%30.42 "Hg10 mi
11:20 am46 °FSunny.9 mph62%30.45 "Hg10 mi
10:50 am39 °FSunny.5 mph75%30.45 "Hg10 mi
10:20 am41 °FSunny.2 mph66%30.45 "Hg10 mi
9:50 am46 °FSunny.12 mph57%30.42 "Hg10 mi
9:20 am45 °FSunny.13 mph57%30.42 "Hg10 mi
8:50 am45 °FSunny.14 mph57%30.42 "Hg10 mi
8:20 am45 °FSunny.13 mph57%30.42 "Hg10 mi
7:50 am43 °FClear.6 mph61%30.42 "Hg10 mi
7:20 am36 °FPassing clouds.9 mph75%30.42 "HgN/A
6:50 am32 °FClear.12 mph80%30.42 "Hg10 mi
6:20 am32 °FClear.2 mph87%30.42 "Hg10 mi
5:50 am30 °FClear.7 mph80%30.42 "Hg10 mi
5:20 am28 °FClear.12 mph86%30.45 "Hg10 mi
4:50 am28 °FClear.10 mph86%30.45 "Hg10 mi
4:20 am28 °FClear.8 mph86%30.45 "Hg10 mi
3:50 am28 °FClear.8 mph86%30.45 "Hg10 mi
3:20 am30 °FClear.9 mph86%30.45 "Hg10 mi
2:50 am28 °FClear.8 mph86%30.48 "Hg10 mi
2:20 am30 °FClear.8 mph80%30.45 "Hg10 mi
1:50 am28 °FClear.10 mph86%30.45 "Hg10 mi
1:20 am30 °FClear.2 mph86%30.45 "Hg10 mi
Weather by CustomWeather, © 2016

See weather overviewHow to use our weather pages